• In Russia
  • List of Countries
  • For 7 days
  • Water Temperature
  • Satellite Maps
  • Weather Map
  • Weather Widgets
  • user-avatar
    Login

    Hourly Weather Subash

    Today, 21 September, Friday

    Time Temperature Precipitation Wind Pressure Humidity
    00:00 +10°C° 0.1 mm 1 mps 746 mmHg 90%
    01:00 +9°C° 0 mm 1 mps 747 mmHg 90%
    02:00 +8°C° 0 mm 2 mps 747 mmHg 90%
    03:00 +7°C° 0 mm 2 mps 747 mmHg 90%
    04:00 +7°C° 0 mm 2 mps 748 mmHg 90%
    05:00 +7°C° 0 mm 2 mps 748 mmHg 90%
    06:00 +6°C° 0 mm 2 mps 749 mmHg 90%
    07:00 +8°C° 0 mm 2 mps 749 mmHg 83%
    08:00 +10°C° 0 mm 2 mps 749 mmHg 76%
    09:00 +12°C° 0 mm 2 mps 750 mmHg 69%
    10:00 +13°C° 0 mm 2 mps 750 mmHg 65%
    11:00 +13°C° 0 mm 3 mps 750 mmHg 61%
    12:00 +16°C° 0 mm 3 mps 750 mmHg 57%
    13:00 +16°C° 0 mm 3 mps 750 mmHg 59%
    14:00 +16°C° 0 mm 3 mps 751 mmHg 62%
    15:00 +16°C° 0 mm 3 mps 751 mmHg 65%
    16:00 +14°C° 0 mm 3 mps 751 mmHg 73%
    17:00 +13°C° 0 mm 3 mps 751 mmHg 81%
    18:00 +13°C° 0 mm 2 mps 752 mmHg 89%
    19:00 +12°C° 0 mm 2 mps 752 mmHg 90%
    20:00 +12°C° 0 mm 2 mps 752 mmHg 92%
    21:00 +12°C° 0 mm 2 mps 753 mmHg 94%
    22:00 +12°C° 0 mm 2 mps 753 mmHg 95%
    23:00 +12°C° 0 mm 2 mps 753 mmHg 95%

    Tomorrow, 22 September, Saturday

    Time Temperature Precipitation Wind Pressure Humidity
    00:00 +12°C° 0 mm 1 mps 753 mmHg 95%
    01:00 +11°C° 0 mm 1 mps 753 mmHg 95%
    02:00 +11°C° 0 mm 1 mps 753 mmHg 95%
    03:00 +11°C° 0 mm 1 mps 753 mmHg 96%
    04:00 +11°C° 0 mm 1 mps 754 mmHg 96%
    05:00 +10°C° 0 mm 2 mps 754 mmHg 96%
    06:00 +12°C° 0 mm 2 mps 754 mmHg 96%
    07:00 +13°C° 0 mm 2 mps 754 mmHg 92%
    08:00 +15°C° 0 mm 2 mps 754 mmHg 88%
    09:00 +16°C° 0 mm 3 mps 754 mmHg 85%
    10:00 +17°C° 0 mm 3 mps 754 mmHg 80%
    11:00 +19°C° 0 mm 3 mps 754 mmHg 76%
    12:00 +20°C° 0 mm 4 mps 754 mmHg 72%
    13:00 +21°C° 0 mm 4 mps 754 mmHg 72%
    14:00 +21°C° 0 mm 4 mps 753 mmHg 72%
    15:00 +21°C° 0 mm 4 mps 753 mmHg 71%
    16:00 +20°C° 0 mm 3 mps 753 mmHg 77%
    17:00 +18°C° 0 mm 3 mps 753 mmHg 83%
    18:00 +17°C° 0 mm 2 mps 753 mmHg 89%
    19:00 +17°C° 0 mm 3 mps 753 mmHg 90%
    20:00 +16°C° 0 mm 3 mps 753 mmHg 91%
    21:00 +16°C° 0 mm 3 mps 753 mmHg 92%
    22:00 +14°C° 0 mm 3 mps 753 mmHg 92%
    23:00 +14°C° 0 mm 3 mps 753 mmHg 93%

    Day after tomorrow, 23 September, Sunday

    Time Temperature Precipitation Wind Pressure Humidity
    00:00 +14°C° 0 mm 3 mps 753 mmHg 93%
    01:00 +14°C° 0 mm 3 mps 753 mmHg 94%
    02:00 +15°C° 0 mm 2 mps 753 mmHg 94%
    03:00 +14°C° 0 mm 2 mps 753 mmHg 94%
    04:00 +14°C° 0 mm 2 mps 753 mmHg 94%
    05:00 +14°C° 0 mm 2 mps 753 mmHg 95%
    06:00 +13°C° 0 mm 3 mps 753 mmHg 95%
    07:00 +14°C° 0 mm 3 mps 753 mmHg 90%
    08:00 +17°C° 0 mm 3 mps 753 mmHg 85%
    09:00 +18°C° 0 mm 4 mps 753 mmHg 80%
    10:00 +20°C° 0 mm 4 mps 752 mmHg 76%
    11:00 +21°C° 0 mm 5 mps 752 mmHg 71%
    12:00 +22°C° 0 mm 5 mps 752 mmHg 66%
    13:00 +22°C° 0 mm 5 mps 751 mmHg 66%
    14:00 +22°C° 0 mm 5 mps 751 mmHg 65%
    15:00 +22°C° 0 mm 5 mps 751 mmHg 65%
    16:00 +20°C° 0 mm 5 mps 751 mmHg 70%
    17:00 +19°C° 0 mm 4 mps 750 mmHg 75%
    18:00 +17°C° 0 mm 4 mps 750 mmHg 81%
    19:00 +17°C° 0 mm 4 mps 750 mmHg 81%
    20:00 +17°C° 0 mm 4 mps 750 mmHg 82%
    21:00 +15°C° 0 mm 4 mps 750 mmHg 82%
    22:00 +15°C° 0 mm 4 mps 749 mmHg 81%
    23:00 +14°C° 0 mm 4 mps 749 mmHg 81%

    24 September, Monday

    Time Temperature Precipitation Wind Pressure Humidity
    00:00 +14°C° 0 mm 5 mps 749 mmHg 80%
    01:00 +14°C° 0 mm 5 mps 748 mmHg 77%
    02:00 +13°C° 0 mm 5 mps 748 mmHg 74%
    03:00 +13°C° 0 mm 5 mps 748 mmHg 71%
    04:00 +13°C° 0 mm 5 mps 747 mmHg 70%
    05:00 +12°C° 0 mm 5 mps 747 mmHg 70%
    06:00 +12°C° 0 mm 5 mps 747 mmHg 69%
    07:00 +13°C° 0 mm 5 mps 747 mmHg 65%
    08:00 +14°C° 0 mm 6 mps 746 mmHg 61%
    09:00 +16°C° 0 mm 6 mps 746 mmHg 57%
    10:00 +17°C° 0 mm 6 mps 746 mmHg 54%
    11:00 +18°C° 0 mm 7 mps 746 mmHg 51%
    12:00 +21°C° 0 mm 7 mps 746 mmHg 47%
    13:00 +21°C° 0 mm 6 mps 746 mmHg 49%
    14:00 +21°C° 0 mm 5 mps 746 mmHg 50%
    15:00 +21°C° 0 mm 4 mps 746 mmHg 51%
    16:00 +19°C° 0 mm 4 mps 746 mmHg 55%
    17:00 +18°C° 0 mm 3 mps 746 mmHg 59%
    18:00 +16°C° 0 mm 3 mps 746 mmHg 62%
    19:00 +16°C° 0 mm 3 mps 746 mmHg 65%
    20:00 +14°C° 0 mm 3 mps 746 mmHg 67%
    21:00 +15°C° 0 mm 2 mps 746 mmHg 70%
    22:00 +13°C° 0 mm 3 mps 745 mmHg 71%
    23:00 +13°C° 0 mm 3 mps 745 mmHg 73%

    25 September, Tuesday

    Time Temperature Precipitation Wind Pressure Humidity
    00:00 +12°C° 0 mm 3 mps 745 mmHg 74%
    01:00 +12°C° 0 mm 3 mps 745 mmHg 75%
    02:00 +12°C° 0 mm 4 mps 744 mmHg 75%
    03:00 +12°C° 0 mm 4 mps 744 mmHg 76%
    04:00 +12°C° 0 mm 5 mps 744 mmHg 79%
    05:00 +13°C° 0 mm 5 mps 744 mmHg 83%
    06:00 +13°C° 0 mm 6 mps 744 mmHg 86%
    07:00 +13°C° 0.1 mm 6 mps 744 mmHg 85%
    08:00 +13°C° 0.1 mm 5 mps 743 mmHg 84%
    09:00 +14°C° 0.1 mm 5 mps 743 mmHg 82%
    10:00 +14°C° 0 mm 5 mps 743 mmHg 80%
    11:00 +15°C° 0 mm 6 mps 743 mmHg 78%
    12:00 +15°C° 0 mm 6 mps 743 mmHg 76%
    13:00 +15°C° 0.1 mm 6 mps 743 mmHg 75%
    14:00 +15°C° 0.1 mm 5 mps 743 mmHg 75%
    15:00 +15°C° 0.1 mm 5 mps 743 mmHg 74%
    16:00 +14°C° 0.2 mm 5 mps 743 mmHg 75%
    17:00 +13°C° 0.2 mm 4 mps 743 mmHg 76%
    18:00 +12°C° 0.2 mm 4 mps 742 mmHg 77%
    19:00 +12°C° 0.7 mm 5 mps 742 mmHg 79%
    20:00 +11°C° 0.7 mm 6 mps 742 mmHg 82%
    21:00 +10°C° 0.7 mm 7 mps 742 mmHg 84%
    22:00 +10°C° 0.4 mm 7 mps 742 mmHg 84%
    23:00 +10°C° 0.4 mm 7 mps 742 mmHg 84%

    26 September, Wednesday

    Time Temperature Precipitation Wind Pressure Humidity
    00:00 +10°C° 0.4 mm 7 mps 741 mmHg 84%
    01:00 +10°C° 0.2 mm 6 mps 741 mmHg 83%
    02:00 +9°C° 0.2 mm 6 mps 741 mmHg 83%
    03:00 +9°C° 0.2 mm 5 mps 741 mmHg 82%
    04:00 +8°C° 0 mm 6 mps 741 mmHg 82%
    05:00 +7°C° 0 mm 6 mps 741 mmHg 82%
    06:00 +5°C° 0 mm 6 mps 741 mmHg 82%
    07:00 +6°C° 0 mm 7 mps 741 mmHg 79%
    08:00 +6°C° 0 mm 8 mps 741 mmHg 76%
    09:00 +7°C° 0 mm 9 mps 741 mmHg 73%
    10:00 +7°C° 0.1 mm 9 mps 742 mmHg 73%
    11:00 +7°C° 0.1 mm 9 mps 742 mmHg 73%
    12:00 +8°C° 0.1 mm 9 mps 742 mmHg 73%
    13:00 +7°C° 0.2 mm 9 mps 742 mmHg 74%
    14:00 +7°C° 0.2 mm 9 mps 743 mmHg 76%
    15:00 +7°C° 0.2 mm 9 mps 743 mmHg 78%
    16:00 +7°C° 0.1 mm 9 mps 743 mmHg 79%
    17:00 +7°C° 0.1 mm 8 mps 744 mmHg 79%
    18:00 +7°C° 0.1 mm 8 mps 744 mmHg 80%
    19:00 +7°C° 0.1 mm 8 mps 744 mmHg 82%
    20:00 +8°C° 0.1 mm 7 mps 745 mmHg 84%
    21:00 +8°C° 0.1 mm 7 mps 745 mmHg 85%
    22:00 +6°C° 0 mm 7 mps 746 mmHg 86%
    23:00 +7°C° 0 mm 6 mps 747 mmHg 87%
    Show more